SCP
0 0 0 0 0 0 0 0 0 0 0 0 0 0 0 0 0 0 0 0 0 0 0 0 0 0 0 0 0 0 0 0 0 0 0 0 0 0 0 0 0 0 0
0 0 0 0 0 0 0 0 0 0 0 0 0 0 0 0 0 0 0 0 0 0 0 0 0 0 0 0 0 0 0 0 0 0 0 0 0 0 0 0 0 0 0
0 0 0 0 0 0 0 0 0 0 0 0 0 0 0 0 0 0 0 0 0 0 0 0 0 0 0 0 0 0 0 0 0 0 0 0 0 0 0 0 0 0 0
0 0 0 0 0 0 0 0 0 0 0 0 0 0 0 0 0 0 0 0 0 0 0 0 0 0 0 0 0 0 0 0 0 0 0 0 0 0 0 0 0 0 0
0 0 0 0 0 0 0 0 0 0 0 0 0 0 0 0 0 0 0 0 0 0 0 0 0 0 0 0 0 0 0 0 0 0 0 0 0 0 0 0 0 0 0
0 0 0 0 0 0 0 0 0 0 0 0 0 0 -0 -0 0 0 0 0 0 0 0 0 0 0 0 0 0 0 0 0 0 0 0 0 0 0 0 0 0 0 0
0 0 0 0 0 0 0 0 0 0 0 -0 -0 -0 -0 -0 -0 -0 -0 -0 -0 0 0 0 0 0 0 0 0 0 0 0 0 0 0 0 0 0 0 0 0 0 0
0 0 0 0 0 0 -0 -0 0 0 0 0 0 0 0 0 -0 0 0 0 0 0 0 0 0 0 0 0 0 0 0 0 0 0 0 0 0 0 0 0 0 0 0
0 0 0 0 -0 -0 -0 -0 0 0 0 0 0 0 0 0 0 0 0 0 0 0 0 0 0 -0 -0 0 0 0 0 0 0 0 0 0 0 0 0 0 0 0 0
0 0 0 -0 -0 -0 -0 -0 -0 -0 -0 -0 -0 -0 -0 -0 -0 -0 -0 -0 -0 0 0 0 0 0 0 0 0 0 0 0 0 0 0 0 0 0 0 0 0 0 0
0 0 -0 -0 -0 -0 -0 -0 -0 -0 -0 -0 -0 -0 -0 -0 -0 -0 -0 -0 0 0 0 0 0 0 0 0 0 0 0 0 0 0 0 0 0 0 0 0 0 0 0
0 -0 -0 -0 -0 -0 -0 0 0 0 0 0 0 0 0 0 0 0 0 0 0 0 0 -0 0 0 0 0 0 0 0 0 0 0 0 0 0 0 0 0 0 0 0
0 0 0 -0 -0 0 0 0 0 0 0 0 0 0 0 0 0 0 0 0 0 0 0 0 -0 -0 0 -0 0 -0 0 0 0 0 0 0 0 0 0 0 0 0 0
0 0 0 0 0 0 0 0 0 0 0 0 0 0 0 0 0 0 0 0 0 0 0 0 0 0 0 0 0 0 0 0 0 0 0 0 0 0 0 0 0 0 0
0 0 0 0 0 0 0 0 0 0 0 0 0 0 0 0 0 0 0 0 0 0 0 0 0 0 0 0 0 0 0 0 0 0 0 0 0 0 0 0 0 0 0
0 0 0 0 0 0 0 0 0 0 0 0 0 0 0 0 0 0 0 0 0 0 0 0 0 0 0 0 0 0 0 0 0 0 0 0 0 0 0 0 0 0 0
0 0 0 0 0 0 0 0 0 0 0 0 0 0 0 0 0 0 0 0 0 0 0 0 0 0 0 0 0 0 0 0 0 0 0 0 0 0 0 0 0 0 0
0 0 0 0 0 0 0 0 0 0 0 0 0 0 0 0 0 0 0 0 0 0 0 0 0 0 0 0 0 0 0 0 0 0 0 0 0 0 0 0 0 0 0
0 0 0 0 0 0 0 0 0 0 0 0 0 0 0 0 0 0 0 0 0 0 0 0 0 0 0 0 0 0 0 0 0 0 0 0 0 0 0 0 0 0 0
0 0 0 0 0 0 0 0 0 0 0 0 0 0 0 0 0 0 0 0 0 0 0 0 0 0 0 0 0 0 0 0 0 0 0 0 0 0 0 0 0 0 0
0 0 0 0 0 0 0 0 0 0 0 0 0 0 0 0 0 0 0 0 0 0 0 0 0 0 0 0 0 0 0 0 0 0 0 0 0 0 0 0 0 0 0
0 0 0 0 0 0 0 0 0 0 0 0 0 0 0 0 0 0 0 0 0 0 0 0 0 0 0 0 0 0 0 0 0 0 0 0 0 0 0 0 0 0 0
0 0 0 0 0 0 0 0 0 0 0 0 0 0 0 0 0 0 0 0 0 0 0 0 0 0 0 0 0 0 0 0 0 0 0 0 0 0 0 0 0 0 0
0 0 0 0 0 0 0 0 0 0 0 0 0 0 0 0 0 0 0 0 0 0 0 0 0 0 0 0 0 0 0 0 0 0 0 0 0 0 0 0 0 0 0
0 0 0 0 0 0 0 0 0 0 0 0 0 0 0 0 0 0 0 0 0 0 0 0 0 0 0 0 0 0 0 0 0 0 0 0 0 0 0 0 0 0 0
0 0 0 0 0 0 0 0 0 0 0 0 0 0 0 0 0 0 0 0 -0 -0 0 0 0 0 0 0 0 0 0 0 0 0 0 0 0 0 0 0 0 0 0
Wind_Speed_500mb
48 45 45 43 37 32 28 29 22 24 16 14 14 13 6 3 3 0 7 9 14 19 21 22 24 30 35 36 37 40 40 44 45 51 57 62 64 66 66 66 67 66 64
52 53 55 56 57 57 55 50 46 39 37 32 29 23 18 15 12 8 6 8 11 15 18 18 20 24 27 30 34 36 40 43 43 46 52 48 56 57 55 58 64 67 71
50 49 50 54 53 55 54 53 53 53 51 42 34 30 25 20 15 18 16 16 14 13 13 16 19 22 26 26 28 31 35 42 42 39 32 22 14 45 33 19 31 43 59
48 48 48 49 51 51 46 44 42 41 41 36 33 31 32 33 33 31 28 25 23 22 19 19 20 23 27 32 34 34 37 39 44 43 42 47 56 58 52 54 46 40 45
42 44 46 46 45 41 40 38 36 35 34 32 32 31 30 29 25 22 21 22 25 27 27 28 27 25 27 31 38 42 44 44 50 52 49 49 52 57 68 92 75 70 73
37 39 38 36 37 34 31 30 28 30 28 27 26 27 28 27 24 26 28 29 29 30 31 32 33 33 34 35 37 40 44 48 52 54 61 59 56 62 61 73 88 96 99
31 30 28 27 27 25 25 24 24 27 28 28 28 28 29 31 33 35 37 40 42 44 45 45 47 46 46 45 46 46 47 47 50 54 61 66 68 63 66 70 83 91 101
24 21 20 20 21 22 20 21 21 22 23 24 25 25 26 30 33 36 40 44 47 50 52 53 54 54 53 54 55 56 55 55 54 56 57 65 70 70 71 73 74 81 86
22 17 14 13 13 14 14 17 18 20 22 23 22 22 25 27 31 34 38 43 47 52 57 61 66 67 67 65 64 65 66 64 63 63 61 62 65 66 69 74 75 77 74
24 16 10 9 12 13 17 20 22 26 30 35 38 43 47 49 51 53 54 56 56 56 59 60 63 66 69 72 76 78 76 75 72 70 69 68 67 65 64 67 72 76 84
28 20 12 9 8 8 14 21 23 26 30 37 39 43 47 51 56 61 66 71 75 76 77 76 78 79 80 78 79 80 82 83 84 83 80 78 72 72 69 67 68 75 79
29 21 14 14 13 7 2 14 18 21 26 33 37 38 43 52 60 65 70 74 81 86 92 96 99 99 97 94 92 93 91 91 92 91 89 92 87 83 77 73 73 74 75
32 28 25 19 14 9 8 17 24 29 35 41 39 40 46 55 63 68 72 79 87 94 99 102 102 103 102 103 101 101 101 97 96 95 97 98 96 98 92 84 80 78 79
36 33 30 25 20 17 17 27 26 30 38 41 42 49 55 61 67 74 81 87 91 95 97 98 100 102 104 104 101 95 97 98 99 100 98 97 98 100 97 94 90 83 81
36 32 27 26 24 21 23 28 33 38 43 45 51 56 57 65 73 80 85 92 95 96 98 102 105 108 110 110 105 92 81 80 85 92 99 102 101 96 97 93 96 89 83
32 28 29 28 29 30 28 31 36 41 46 51 54 57 65 73 79 86 91 94 97 100 104 107 111 114 112 108 98 81 86 96 107 105 93 87 89 95 100 88 77 77 75
27 28 31 33 32 30 30 34 40 46 51 54 58 64 72 78 84 91 95 97 100 104 107 108 107 105 100 91 78 67 72 82 89 92 95 92 84 84 90 88 84 80 80
18 30 37 38 36 35 34 39 46 50 53 56 63 69 73 81 88 93 97 99 101 104 105 103 97 94 90 81 75 68 72 77 83 85 89 94 95 95 76 88 94 99 104
20 27 39 39 37 35 40 46 50 53 55 59 66 71 76 82 87 93 97 99 100 101 100 95 93 89 86 77 72 66 70 76 78 79 78 78 81 86 83 82 85 91 104
23 27 39 41 40 40 45 50 52 54 57 63 69 73 77 82 85 88 92 95 95 97 94 93 87 81 80 71 66 58 63 73 77 78 79 75 69 70 71 84 100 109 105
31 36 42 42 41 41 46 50 51 54 61 68 73 77 78 79 81 86 87 88 90 91 89 89 86 80 74 69 65 56 61 70 80 83 78 75 74 75 75 74 82 98 100
41 43 43 43 43 47 50 49 51 58 65 72 75 76 76 76 78 81 83 83 83 85 86 87 87 81 77 76 71 60 61 65 75 85 86 86 75 70 71 74 77 80 88
44 48 48 46 46 47 47 48 54 62 70 75 75 75 75 75 76 78 79 81 78 78 81 83 86 91 91 90 84 73 70 70 77 85 86 83 86 85 87 85 87 90 92
48 47 46 45 44 43 44 50 58 66 70 73 72 72 75 76 75 74 73 75 74 77 78 83 94 96 86 84 80 83 88 86 87 96 101 102 91 84 88 88 87 86 87
50 48 46 46 40 42 46 53 60 63 65 66 66 67 70 73 75 73 71 69 70 68 72 80 83 89 87 83 77 81 82 87 86 86 89 93 88 86 88 89 86 83 79
49 47 46 41 40 45 46 53 58 60 61 61 61 62 67 69 69 73 75 60 64 65 61 63 65 71 73 74 75 78 76 77 78 86 86 87 91 90 88 85 81 78 74
Wind_Direction_500mb
92 90 87 86 87 88 90 90 103 99 116 140 157 158 173 183 184 185 279 284 284 279 284 282 283 284 284 285 287 291 289 288 292 300 292 288 283 278 274 273 270 268 267
96 91 89 88 84 82 81 82 83 87 89 92 94 94 89 85 68 41 350 319 301 287 281 281 284 284 286 294 295 289 292 289 291 292 300 305 295 287 282 276 273 273 268
97 91 87 82 82 80 75 74 74 74 73 70 73 76 75 80 78 57 39 23 2 340 314 297 293 292 288 289 287 291 293 293 288 289 283 299 288 308 307 294 290 286 275
106 97 88 82 76 72 71 69 67 65 62 60 56 51 49 42 38 31 26 19 14 8 350 329 313 305 301 300 300 296 291 288 290 289 283 279 282 288 299 288 287 274 277
101 94 88 83 77 72 66 62 60 60 57 46 39 35 37 40 33 23 13 6 3 357 351 345 339 327 317 307 301 297 295 295 291 287 284 281 281 280 280 288 291 285 281
107 99 91 85 80 75 71 65 57 58 49 41 37 27 21 19 7 359 352 350 346 343 340 337 334 330 323 315 309 306 300 295 289 287 286 280 276 278 277 280 283 286 286
120 106 95 89 84 75 66 59 51 47 41 31 24 19 10 5 360 356 349 343 338 336 336 333 330 329 328 324 319 316 312 306 297 289 285 282 278 276 274 275 278 281 283
132 115 97 78 69 61 55 51 44 40 30 24 20 13 3 0 355 348 342 338 335 330 325 323 321 320 319 317 314 311 309 307 307 304 297 287 281 280 279 276 277 280 279
150 133 113 91 84 80 67 47 38 30 21 16 7 357 353 346 340 336 331 327 324 321 318 316 314 312 311 311 309 307 306 303 301 300 298 295 292 285 279 278 276 274 273
172 166 148 117 100 76 54 40 29 20 15 10 5 360 356 352 349 344 340 336 331 326 321 317 313 309 307 307 306 304 302 300 298 296 295 292 293 291 286 282 278 274 271
189 182 160 141 126 86 44 24 12 6 358 352 346 343 339 337 335 334 332 329 325 323 320 317 313 309 306 302 299 296 295 294 293 292 291 289 289 288 287 285 281 277 273
197 188 180 174 174 167 23 0 341 335 329 327 324 321 320 321 323 323 322 319 317 316 315 313 310 307 305 301 296 293 291 291 289 286 285 285 286 284 283 282 281 281 279
199 197 196 198 199 216 275 316 314 306 309 312 309 310 308 308 310 312 312 312 311 309 308 306 305 305 304 304 303 303 300 294 288 284 282 281 279 280 281 281 279 278 279
200 202 205 210 213 230 262 292 288 289 294 303 305 306 305 306 308 309 309 308 307 305 304 304 303 302 301 299 298 300 300 300 297 294 287 280 277 277 277 278 278 278 277
187 195 203 208 212 234 272 286 291 295 300 300 301 302 304 306 308 309 310 311 310 308 306 305 303 301 299 298 297 290 280 284 290 290 290 289 286 281 276 278 277 278 277
197 210 214 212 231 251 275 286 293 294 295 298 301 304 307 310 312 313 314 313 311 310 309 308 307 305 303 300 298 294 286 280 268 270 278 283 281 278 281 278 270 269 270
212 215 215 233 248 261 278 287 294 297 299 301 304 307 310 313 315 316 315 314 312 312 311 311 309 308 307 307 305 300 291 283 277 273 275 277 277 277 273 272 271 265 260
224 229 236 243 247 258 266 283 293 297 299 301 305 309 313 315 316 316 315 314 315 314 314 313 313 313 312 313 308 303 297 290 288 287 279 273 277 268 282 273 268 270 274
287 254 247 243 248 263 280 290 294 296 299 304 308 312 314 315 316 315 315 316 316 316 315 317 317 313 313 314 310 303 298 296 295 295 294 292 286 274 271 273 273 270 270
276 254 240 243 256 272 285 289 293 298 303 308 312 314 316 316 316 316 315 316 317 315 316 316 313 313 313 316 315 305 302 301 301 299 299 299 293 290 282 272 272 271 271
260 245 239 249 263 276 286 290 297 303 309 312 314 316 317 317 317 315 316 316 317 315 315 313 313 317 320 321 320 305 301 299 301 300 297 294 291 288 284 279 275 272 272
253 249 249 259 271 283 289 295 301 306 310 312 315 316 315 316 316 316 318 318 319 316 316 315 318 322 324 326 321 306 301 300 297 295 297 300 296 291 287 284 281 279 273
250 246 251 261 275 284 289 296 304 309 312 313 314 315 314 316 319 320 322 321 322 320 317 318 322 324 327 326 322 309 306 300 297 298 299 298 295 292 287 283 279 275 276
246 248 255 266 275 283 291 302 308 309 310 311 313 314 316 318 321 323 325 323 325 323 320 323 321 318 313 310 309 313 315 312 306 305 305 306 299 289 287 283 279 275 276
246 254 262 270 277 287 298 305 306 308 310 311 314 315 317 320 323 324 327 328 327 321 313 308 307 308 307 308 311 308 308 307 305 304 301 299 295 291 290 287 282 277 272
250 254 261 270 281 292 305 308 310 311 312 313 314 318 320 322 325 324 326 331 326 323 311 307 306 306 304 308 310 308 307 307 306 304 299 294 292 289 285 280 276 273 266
Wind_Speed_850mb
48 45 45 43 37 32 28 29 22 24 16 14 14 13 6 3 3 0 7 9 14 19 21 22 24 30 35 36 37 40 40 44 45 51 57 62 64 66 66 66 67 66 64
52 53 55 56 57 57 55 50 46 39 37 32 29 23 18 15 12 8 6 8 11 15 18 18 20 24 27 30 34 36 40 43 43 46 52 48 56 57 55 58 64 67 71
50 49 50 54 53 55 54 53 53 53 51 42 34 30 25 20 15 18 16 16 14 13 13 16 19 22 26 26 28 31 35 42 42 39 32 22 14 45 33 19 31 43 59
48 48 48 49 51 51 46 44 42 41 41 36 33 31 32 33 33 31 28 25 23 22 19 19 20 23 27 32 34 34 37 39 44 43 42 47 56 58 52 54 46 40 45
42 44 46 46 45 41 40 38 36 35 34 32 32 31 30 29 25 22 21 22 25 27 27 28 27 25 27 31 38 42 44 44 50 52 49 49 52 57 68 92 75 70 73
37 39 38 36 37 34 31 30 28 30 28 27 26 27 28 27 24 26 28 29 29 30 31 32 33 33 34 35 37 40 44 48 52 54 61 59 56 62 61 73 88 96 99
31 30 28 27 27 25 25 24 24 27 28 28 28 28 29 31 33 35 37 40 42 44 45 45 47 46 46 45 46 46 47 47 50 54 61 66 68 63 66 70 83 91 101
24 21 20 20 21 22 20 21 21 22 23 24 25 25 26 30 33 36 40 44 47 50 52 53 54 54 53 54 55 56 55 55 54 56 57 65 70 70 71 73 74 81 86
22 17 14 13 13 14 14 17 18 20 22 23 22 22 25 27 31 34 38 43 47 52 57 61 66 67 67 65 64 65 66 64 63 63 61 62 65 66 69 74 75 77 74
24 16 10 9 12 13 17 20 22 26 30 35 38 43 47 49 51 53 54 56 56 56 59 60 63 66 69 72 76 78 76 75 72 70 69 68 67 65 64 67 72 76 84
28 20 12 9 8 8 14 21 23 26 30 37 39 43 47 51 56 61 66 71 75 76 77 76 78 79 80 78 79 80 82 83 84 83 80 78 72 72 69 67 68 75 79
29 21 14 14 13 7 2 14 18 21 26 33 37 38 43 52 60 65 70 74 81 86 92 96 99 99 97 94 92 93 91 91 92 91 89 92 87 83 77 73 73 74 75
32 28 25 19 14 9 8 17 24 29 35 41 39 40 46 55 63 68 72 79 87 94 99 102 102 103 102 103 101 101 101 97 96 95 97 98 96 98 92 84 80 78 79
36 33 30 25 20 17 17 27 26 30 38 41 42 49 55 61 67 74 81 87 91 95 97 98 100 102 104 104 101 95 97 98 99 100 98 97 98 100 97 94 90 83 81
36 32 27 26 24 21 23 28 33 38 43 45 51 56 57 65 73 80 85 92 95 96 98 102 105 108 110 110 105 92 81 80 85 92 99 102 101 96 97 93 96 89 83
32 28 29 28 29 30 28 31 36 41 46 51 54 57 65 73 79 86 91 94 97 100 104 107 111 114 112 108 98 81 86 96 107 105 93 87 89 95 100 88 77 77 75
27 28 31 33 32 30 30 34 40 46 51 54 58 64 72 78 84 91 95 97 100 104 107 108 107 105 100 91 78 67 72 82 89 92 95 92 84 84 90 88 84 80 80
18 30 37 38 36 35 34 39 46 50 53 56 63 69 73 81 88 93 97 99 101 104 105 103 97 94 90 81 75 68 72 77 83 85 89 94 95 95 76 88 94 99 104
20 27 39 39 37 35 40 46 50 53 55 59 66 71 76 82 87 93 97 99 100 101 100 95 93 89 86 77 72 66 70 76 78 79 78 78 81 86 83 82 85 91 104
23 27 39 41 40 40 45 50 52 54 57 63 69 73 77 82 85 88 92 95 95 97 94 93 87 81 80 71 66 58 63 73 77 78 79 75 69 70 71 84 100 109 105
31 36 42 42 41 41 46 50 51 54 61 68 73 77 78 79 81 86 87 88 90 91 89 89 86 80 74 69 65 56 61 70 80 83 78 75 74 75 75 74 82 98 100
41 43 43 43 43 47 50 49 51 58 65 72 75 76 76 76 78 81 83 83 83 85 86 87 87 81 77 76 71 60 61 65 75 85 86 86 75 70 71 74 77 80 88
44 48 48 46 46 47 47 48 54 62 70 75 75 75 75 75 76 78 79 81 78 78 81 83 86 91 91 90 84 73 70 70 77 85 86 83 86 85 87 85 87 90 92
48 47 46 45 44 43 44 50 58 66 70 73 72 72 75 76 75 74 73 75 74 77 78 83 94 96 86 84 80 83 88 86 87 96 101 102 91 84 88 88 87 86 87
50 48 46 46 40 42 46 53 60 63 65 66 66 67 70 73 75 73 71 69 70 68 72 80 83 89 87 83 77 81 82 87 86 86 89 93 88 86 88 89 86 83 79
49 47 46 41 40 45 46 53 58 60 61 61 61 62 67 69 69 73 75 60 64 65 61 63 65 71 73 74 75 78 76 77 78 86 86 87 91 90 88 85 81 78 74
Wind_Direction_850mb
92 90 87 86 87 88 90 90 103 99 116 140 157 158 173 183 184 185 279 284 284 279 284 282 283 284 284 285 287 291 289 288 292 300 292 288 283 278 274 273 270 268 267
96 91 89 88 84 82 81 82 83 87 89 92 94 94 89 85 68 41 350 319 301 287 281 281 284 284 286 294 295 289 292 289 291 292 300 305 295 287 282 276 273 273 268
97 91 87 82 82 80 75 74 74 74 73 70 73 76 75 80 78 57 39 23 2 340 314 297 293 292 288 289 287 291 293 293 288 289 283 299 288 308 307 294 290 286 275
106 97 88 82 76 72 71 69 67 65 62 60 56 51 49 42 38 31 26 19 14 8 350 329 313 305 301 300 300 296 291 288 290 289 283 279 282 288 299 288 287 274 277
101 94 88 83 77 72 66 62 60 60 57 46 39 35 37 40 33 23 13 6 3 357 351 345 339 327 317 307 301 297 295 295 291 287 284 281 281 280 280 288 291 285 281
107 99 91 85 80 75 71 65 57 58 49 41 37 27 21 19 7 359 352 350 346 343 340 337 334 330 323 315 309 306 300 295 289 287 286 280 276 278 277 280 283 286 286
120 106 95 89 84 75 66 59 51 47 41 31 24 19 10 5 360 356 349 343 338 336 336 333 330 329 328 324 319 316 312 306 297 289 285 282 278 276 274 275 278 281 283
132 115 97 78 69 61 55 51 44 40 30 24 20 13 3 0 355 348 342 338 335 330 325 323 321 320 319 317 314 311 309 307 307 304 297 287 281 280 279 276 277 280 279
150 133 113 91 84 80 67 47 38 30 21 16 7 357 353 346 340 336 331 327 324 321 318 316 314 312 311 311 309 307 306 303 301 300 298 295 292 285 279 278 276 274 273
172 166 148 117 100 76 54 40 29 20 15 10 5 360 356 352 349 344 340 336 331 326 321 317 313 309 307 307 306 304 302 300 298 296 295 292 293 291 286 282 278 274 271
189 182 160 141 126 86 44 24 12 6 358 352 346 343 339 337 335 334 332 329 325 323 320 317 313 309 306 302 299 296 295 294 293 292 291 289 289 288 287 285 281 277 273
197 188 180 174 174 167 23 0 341 335 329 327 324 321 320 321 323 323 322 319 317 316 315 313 310 307 305 301 296 293 291 291 289 286 285 285 286 284 283 282 281 281 279
199 197 196 198 199 216 275 316 314 306 309 312 309 310 308 308 310 312 312 312 311 309 308 306 305 305 304 304 303 303 300 294 288 284 282 281 279 280 281 281 279 278 279
200 202 205 210 213 230 262 292 288 289 294 303 305 306 305 306 308 309 309 308 307 305 304 304 303 302 301 299 298 300 300 300 297 294 287 280 277 277 277 278 278 278 277
187 195 203 208 212 234 272 286 291 295 300 300 301 302 304 306 308 309 310 311 310 308 306 305 303 301 299 298 297 290 280 284 290 290 290 289 286 281 276 278 277 278 277
197 210 214 212 231 251 275 286 293 294 295 298 301 304 307 310 312 313 314 313 311 310 309 308 307 305 303 300 298 294 286 280 268 270 278 283 281 278 281 278 270 269 270
212 215 215 233 248 261 278 287 294 297 299 301 304 307 310 313 315 316 315 314 312 312 311 311 309 308 307 307 305 300 291 283 277 273 275 277 277 277 273 272 271 265 260
224 229 236 243 247 258 266 283 293 297 299 301 305 309 313 315 316 316 315 314 315 314 314 313 313 313 312 313 308 303 297 290 288 287 279 273 277 268 282 273 268 270 274
287 254 247 243 248 263 280 290 294 296 299 304 308 312 314 315 316 315 315 316 316 316 315 317 317 313 313 314 310 303 298 296 295 295 294 292 286 274 271 273 273 270 270
276 254 240 243 256 272 285 289 293 298 303 308 312 314 316 316 316 316 315 316 317 315 316 316 313 313 313 316 315 305 302 301 301 299 299 299 293 290 282 272 272 271 271
260 245 239 249 263 276 286 290 297 303 309 312 314 316 317 317 317 315 316 316 317 315 315 313 313 317 320 321 320 305 301 299 301 300 297 294 291 288 284 279 275 272 272
253 249 249 259 271 283 289 295 301 306 310 312 315 316 315 316 316 316 318 318 319 316 316 315 318 322 324 326 321 306 301 300 297 295 297 300 296 291 287 284 281 279 273
250 246 251 261 275 284 289 296 304 309 312 313 314 315 314 316 319 320 322 321 322 320 317 318 322 324 327 326 322 309 306 300 297 298 299 298 295 292 287 283 279 275 276
246 248 255 266 275 283 291 302 308 309 310 311 313 314 316 318 321 323 325 323 325 323 320 323 321 318 313 310 309 313 315 312 306 305 305 306 299 289 287 283 279 275 276
246 254 262 270 277 287 298 305 306 308 310 311 314 315 317 320 323 324 327 328 327 321 313 308 307 308 307 308 311 308 308 307 305 304 301 299 295 291 290 287 282 277 272
250 254 261 270 281 292 305 308 310 311 312 313 314 318 320 322 325 324 326 331 326 323 311 307 306 306 304 308 310 308 307 307 306 304 299 294 292 289 285 280 276 273 266